User: anonymous   Login
Location: Caltech
(34.1382°N, 118.1253°W)
Time: 18:38:37
(UTC-07:00)
Language:

Aureole 3 Rocket - Orbit

View from above orbital plane
View from above orbital plane
View from above satellite
View from above satellite

Ground track
Ground track

The orbit data is extracted from the following two-line orbital elements,

1 12849U 81094B   16151.90648332 +.00000918 +00000-0 +83752-4 0  9992
2 12849 082.4926 100.0432 0904787 002.7641 357.8032 13.49829022690364
Epoch (UTC): 30 May 2016 21:45:20
Eccentricity: 0.0904787
inclination: 82.4926°
perigee height: 399 km
apogee height: 1747 km
right ascension of ascending node: 100.0432°
argument of perigee: 2.7641°
revolutions per day: 13.49829022
mean anomaly at epoch: 357.8032°
orbit number at epoch: 69036

The dashed part of the orbit path shows where the satellite is in the earth's shadow,  

DLR